This is the latest recevied weather packets stored in our database for station/object AD7ZD. If no packets are shown the sender has not sent any weather packets the latest 10 day(s).
| Time | Temp. | Humidity | Pressure | Rain* | Wind** | Luminosity | Snow |
|---|---|---|---|---|---|---|---|
| 1777144342 | 17.22° C | 33% | 1005.3 hPa | 0 mm | - | 678 W/m² | - |
| 1777144039 | 15.56° C | 35% | 1005.4 hPa | 0 mm | - | 495 W/m² | - |
| 1777143735 | 16.11° C | 34% | 1005.4 hPa | 0 mm | - | 601 W/m² | - |
| 1777143432 | 15.56° C | 34% | 1005.4 hPa | 0 mm | - | 722 W/m² | - |
| 1777143128 | 15.56° C | 33% | 1005.9 hPa | 0 mm | - | 728 W/m² | - |
| 1777142823 | 15° C | 34% | 1005.7 hPa | 0 mm | - | 621 W/m² | - |
| 1777142521 | 16.11° C | 34% | 1005.6 hPa | 0 mm | - | 681 W/m² | - |
| 1777142220 | 16.11° C | 37% | 1006.1 hPa | 0 mm | - | 793 W/m² | - |
| 1777141916 | 15° C | 38% | 1005.7 hPa | 0 mm | - | 721 W/m² | - |
| 1777141614 | 15° C | 40% | 1005.9 hPa | 0 mm | - | 372 W/m² | - |
| 1777141312 | 14.44° C | 42% | 1006.1 hPa | 0 mm | - | 382 W/m² | - |
| 1777141009 | 14.44° C | 39% | 1006.2 hPa | 0 mm | - | 548 W/m² | - |
| 1777140705 | 15° C | 38% | 1006.1 hPa | 0 mm | - | 743 W/m² | - |
| 1777140402 | 15° C | 38% | 1006.2 hPa | 0 mm | - | 684 W/m² | - |
| 1777140099 | 15.56° C | 40% | 1006.2 hPa | 0 mm | - | 787 W/m² | - |
| 1777139797 | 13.89° C | 42% | 1006.2 hPa | 0 mm | - | 684 W/m² | - |
| 1777139493 | 14.44° C | 43% | 1006.4 hPa | 0 mm | - | 582 W/m² | - |
| 1777139188 | 15° C | 41% | 1006.4 hPa | 0 mm | - | 464 W/m² | - |
| 1777138886 | 15° C | 40% | 1006.2 hPa | 0 mm | - | 576 W/m² | - |
| 1777138581 | 15° C | 43% | 1006.5 hPa | 0 mm | - | 643 W/m² | - |
| 1777138277 | 15° C | 44% | 1006.4 hPa | 0 mm | - | 700 W/m² | - |
| 1777137974 | 13.89° C | 43% | 1006.4 hPa | 0 mm | - | 631 W/m² | - |
| 1777137670 | 13.89° C | 46% | 1006.5 hPa | 0 mm | - | 563 W/m² | - |
| 1777137367 | 13.33° C | 46% | 1006.4 hPa | 0 mm | - | 517 W/m² | - |
| 1777137064 | 13.89° C | 45% | 1006.3 hPa | 0 mm | - | 530 W/m² | - |
* Rain latest hour (hover to see other rain measurements)
** Current wind speed in m/s (hover to see current wind gust speed)